Location: *
(55.6049°S, 142.1985°W)
Time: 08:43:03
(UTC+00:00)

ERBS - Pass Details

Date: 12 May 2021
Orbit: 400 x 417 km, 57.0° (Epoch: 13 June)

Event Time Altitude Azimuth Distance (km) Brightness Sun altitude
Exits shadow 15:16:35 19° 323° (NW) 1,087 4.1 -16.2°
Maximum altitude 15:18:44 46° 30° (NNE) 576 3.2 -15.9°
Drops below altitude 10° 15:22:00 10° 104° (ESE) 1,512 6.1 -15.5°
Sets 15:24:07 0° 110° (ESE) 2,376 7.2 -15.2°
